Orbital Elements at Epoch 2459200.5 (2020-Dec-17.0) TDB
Reference: JPL 22 (heliocentric ecliptic J2000)
Element | Value | Uncertainty (1-sigma) | Units |
e | .1025476214663939 | 4.1032e-08 | |
a | 2.246573607517054 | 1.0381e-08 | au |
q | 2.016192827617004 | 9.1659e-08 | au |
i | 7.451904442592826 | 3.8799e-06 | deg |
node | 274.2784092053345 | 3.7005e-05 | deg |
peri | 234.6949596628963 | 4.2216e-05 | deg |
M | 59.56511682167172 | 2.1021e-05 | deg |
tp | 2458996.997896445899 (2020-May-27.49789645) | 7.1497e-05 | TDB |
period | 1229.927198813478 3.37 | 8.5252e-06 2.334e-08 | d yr |
n | .2927002511590079 | 2.0288e-09 | deg/d |
Q | 2.476954387417104 | 1.1446e-08 | au |
|
| | Orbit Determination Parameters
Additional Information
|